STARLINK-31848, 59784

Orbit data source: Space-Track

STARLINK-31848, 59784 is a payload satellite owned by SpaceX/Seattle (US) in LEO that was launched on Sat, 18 May 2024 UTC via an FALCON 9 launch vehicle from the Air Force Eastern Test Range (AFETR). Payload-class satellites include a variety of spacecraft equipped with specific instruments for various scientific and technological missions. These include communications satellites like Starlink; space stations such as the ISS; scientific satellites like the Hubble; Earth observation satellites from companies like Planet Labs, Umbra, and HawkEye 360; GPS; miniature CubeSats for education and research; and military/defense satellites.

Loading next visibility...
Identifier
59784, 2024-093C
Orbit
LEO
Last TLE update
1 day ago
Origin
Manufacturer
SpaceX/Seattle
Mission
Operational spacecraft
Bus & Motor
STARLINK V2M, Unknown motor
Mass
730 kg wet, ~700 kg dry
Launch date (UTC)
2024-05-18 (1 year ago)
Launch vehicle
FALCON 9
Launch site
Air Force Eastern Test Range (AFETR)
Object type
Payload
Rocket body
Debris
Shape & HBR
Unknown
Radar Cross Section
Large (>1 m²)

Expand to show TLE details & history

TLE from 1 day ago
0 STARLINK-31848
1 59784U 24093C   25128.38704894  .00001878  00000-0  77766-4 0  9993
2 59784  43.0020 129.6028 0000873 284.5803  75.4952 15.27572125 56044
Epoch: 2025-05-08T09:17Z
Definitive object data (Epoch: 2025-05-08T09:17:21.028Z)
Latitude
-0°
Longitude
123.8069°
Altitude
482.698 km
Speed
7.626 km/s
True Right ascension
08h 38m 24s
True Declination
0° 00' 00"
Sunlit
Object was in daylight at TLE epoch
Visualization TLE readout
Latitude
-19.34356°
Longitude
-39.96454°
Altitude
487.201 km
Speed
7.622 km/s
Apparent Right ascension
00h 51m 32s
Apparent Declination
-48° 18' 44"
Sunlit
Object is in daylight
Visualization observer readout
Local Sidereal Time
17:53:40
Azimuth
125.899° SE
Elevation
-37.346°
Doppler factor
1
Orbital elements
Apogee altitude
485.617 km
Perigee altitude
484.418 km
Semi-major axis
6,863.155 km
Eccentricity
0.0000873
Inclination
43.002°
RAAN
129.6028°
Arg. of periapsis
284.5803°
True anomaly
75.50489°
Mean anomaly
75.4952°
Eccentric anomaly
75.50004°
Mean motion
3.81731 °/min
BSTAR
0.000077766
Orbital period
94.31 mins
Loading maneuver chart data...
Loading SW <> Apogee altitude chart data...
Loading historical data...
Loading historical data...
Loading historical data...
Loading historical data...
Loading historical data...
Loading historical data...
Loading historical data...

STARLINK-31848 Visibility forecast

Observer location: undefined°, undefined°

Span
Click to sort rows by Start time (UTC) header in descending order
Start Az.
Max El. time (UTC)
Max El. Az.
Max El.
End time (UTC)
End Az.
5 mins2025-05-10 02:16:17.707Z196.115° SSW2025-05-10 02:19:17.707Z141.109° SSE20.42°2025-05-10 02:21:17.707Z102.155° ESE
6 mins2025-05-10 03:55:17.707Z249.823° W2025-05-10 03:57:17.707Z246.728° WSW42.662°2025-05-10 04:01:17.707Z72.138° E
6 mins2025-05-10 05:34:17.707Z286.535° WNW2025-05-10 05:37:17.707Z24.045° NE36.835°2025-05-10 05:40:17.707Z75.301° E
5 mins2025-05-10 07:14:17.707Z292.244° WNW2025-05-10 07:16:17.707Z68.779° E43.973°2025-05-10 07:19:17.707Z103.898° ESE
4 mins2025-05-10 08:53:17.707Z250.216° W2025-05-10 08:54:17.707Z226.68° WSW23.879°2025-05-10 08:57:17.707Z159.98° S
|